Huntsville, AL

10:29 PM CDT on May 24, 2018 (GMT -0500)
Huntsville International

Weather History for KHSV - May, 2013

Change the Weather History Date:

Friday, May 10, 2013

  Actual Average Record
Temperature  
Mean Temperature 68 °F 69 °F  
Max Temperature 74 °F 80 °F 94 °F (1936)
Min Temperature 61 °F 58 °F 36 °F (1923)
Degree Days  
Heating Degree Days 0 1  
Month to date heating degree days 55 15  
Since 1 July heating degree days 3026 2989  
Cooling Degree Days 3 5  
Month to date cooling degree days 15 40  
Year to date cooling degree days 74 112  
Growing Degree Days 17 (Base 50)    
Moisture  
Dew Point 61 °F    
Average Humidity 83    
Maximum Humidity 97    
Minimum Humidity 68    
Precipitation  
Precipitation 0.43 in 0.17 in 1.27 in (1991)
Month to date precipitation 5.51 1.73  
Year to date precipitation 28.03 20.99  
Snow  
Snow 0.00 in - - ()
Month to date snowfall 0.0  
Since 1 July snowfall 0.7  
Snow Depth 0.00 in    
Sea Level Pressure  
Sea Level Pressure 30.00 in    
Wind  
Wind Speed 7 mph (SSW)    
Max Wind Speed 21 mph    
Max Gust Speed 30 mph    
Visibility 8 miles    
Events Rain    
T = Trace of Precipitation, MM = Missing Value Source: NWS Daily Summary

Daily Weather History Graph

Daily Weather History Graph

Search for Another Location

Airport or City:

Astronomy

May. 10, 2013 Rise Set
Actual Time 5:48 AM CDT 7:39 PM CDT
Civil Twilight 5:20 AM CDT 8:06 PM CDT
Nautical Twilight 4:47 AM CDT 8:40 PM CDT
Astronomical Twilight 4:11 AM CDT 9:16 PM CDT
Moon 6:12 AM CDT (5/10) 8:27 PM CDT (5/10)
Length of Visible Light 14h 46m
Length of Day
13h 51m
New Moon, 0% of the Moon is Illuminated
May 10
New Moon
May 17
First Quarter
May 24
Full
May 31
Last Quarter
Jun 8
New

Hourly Weather History & Observations

Time (CDT) Temp. Dew Point Humidity Pressure Visibility Wind Dir Wind Speed Gust Speed Precip Events Conditions
12:53 AM 64.9 °F 60.1 °F 84% 30.02 in 10.0 mi ESE 4.6 mph - N/A   Clear
1:53 AM 64.9 °F 60.1 °F 84% 30.00 in 10.0 mi SSE 3.5 mph - N/A   Clear
2:53 AM 64.4 °F 60.8 °F 88% 29.99 in 10.0 mi SE 4.6 mph - N/A   Clear
3:53 AM 64.0 °F 60.1 °F 87% 29.96 in 10.0 mi SSE 3.5 mph - N/A   Clear
4:53 AM 66.0 °F 61.0 °F 84% 29.97 in 10.0 mi South 3.5 mph - N/A   Mostly Cloudy
5:48 AM 64.4 °F 62.6 °F 94% 30.04 in 2.5 mi WSW 16.1 mph 23.0 mph 0.06 in Rain Heavy Rain
5:53 AM 64.0 °F 62.1 °F 93% 30.04 in 2.0 mi WSW 17.3 mph 29.9 mph 0.10 in Rain Heavy Rain
6:02 AM 62.6 °F 60.8 °F 94% 30.05 in 2.5 mi WSW 10.4 mph 21.9 mph 0.10 in Rain Heavy Rain
6:13 AM 62.6 °F 60.8 °F 94% 30.05 in 3.0 mi WSW 10.4 mph - 0.13 in Rain Rain
6:53 AM 62.6 °F 60.8 °F 94% 30.06 in 3.0 mi SW 10.4 mph - N/A Rain Rain
7:53 AM 62.1 °F 59.0 °F 90% 30.05 in 8.0 mi SSW 6.9 mph - 0.08 in Rain Light Rain
8:53 AM 61.0 °F 59.0 °F 93% 30.04 in 7.0 mi South 4.6 mph - 0.03 in Rain Light Rain
9:53 AM 62.1 °F 59.0 °F 90% 30.03 in 10.0 mi South 4.6 mph - 0.03 in Rain Light Rain
10:53 AM 63.0 °F 60.1 °F 90% 30.04 in 6.0 mi South 11.5 mph - 0.00 in Rain Light Rain
11:53 AM 64.9 °F 61.0 °F 87% 30.03 in 10.0 mi South 5.8 mph - 0.01 in   Overcast
12:53 PM 66.0 °F 61.0 °F 84% 30.01 in 10.0 mi South 11.5 mph - 0.00 in   Overcast
1:00 PM 66.2 °F 60.8 °F 83% 30.03 in 10.0 mi SSW 6.9 mph - N/A   Overcast
1:53 PM 66.9 °F 62.1 °F 84% 29.99 in 10.0 mi South 6.9 mph - 0.00 in   Mostly Cloudy
2:08 PM 66.2 °F 62.6 °F 88% 30.00 in 10.0 mi SSW 6.9 mph - N/A   Overcast
2:53 PM 69.1 °F 63.0 °F 81% 29.96 in 10.0 mi South 6.9 mph - N/A   Mostly Cloudy
3:53 PM 72.0 °F 63.0 °F 73% 29.95 in 10.0 mi WSW 9.2 mph - N/A   Scattered Clouds
4:53 PM 73.9 °F 62.1 °F 66% 29.93 in 10.0 mi SSW 6.9 mph - N/A   Mostly Cloudy
5:53 PM 72.0 °F 61.0 °F 68% 29.92 in 10.0 mi South 6.9 mph - N/A   Mostly Cloudy
6:53 PM 71.1 °F 62.1 °F 73% 29.92 in 10.0 mi South 8.1 mph - N/A   Overcast
7:53 PM 69.1 °F 61.0 °F 75% 29.94 in 10.0 mi South 8.1 mph - N/A   Overcast
8:53 PM 66.9 °F 60.1 °F 79% 29.95 in 10.0 mi South 8.1 mph - N/A   Overcast
9:53 PM 66.0 °F 60.1 °F 81% 29.96 in 10.0 mi South 6.9 mph - N/A   Overcast
10:53 PM 66.0 °F 60.1 °F 81% 29.99 in 10.0 mi WSW 4.6 mph - N/A   Overcast
11:53 PM 66.0 °F 61.0 °F 84% 29.97 in 10.0 mi Calm Calm - N/A   Overcast